Location: *
(46.4000°N, 12.6667°E)
Time: 20:09:28
(UTC+00:00)

CZ-4C R/B - Pass Details

Date: 26 June 2021
Orbit: 606 x 1396 km, 63.4° (Epoch: 28 July)

Event Time Altitude Azimuth Distance (km) Brightness Sun altitude
Exits shadow 00:55:23 28° 193° (SSW) 1,333 2.7 -16.4°
Maximum altitude 00:57:55 61° 122° (ESE) 866 2.2 -16.3°
Drops below altitude 10° 01:03:37 10° 44° (NE) 2,559 5.9 -15.8°
Sets 01:06:26 0° 41° (NE) 3,636 7.1 -15.6°
